Year,Month,Day,Hour,Minute,Value (Times are PST for temperature in C)
2012,06,09,08,19,11.10
2012,06,09,08,20,11.10
2012,06,09,08,21,11.10
2012,06,09,08,22,11.20
2012,06,09,08,23,11.20
2012,06,09,08,24,11.30
2012,06,09,08,25,11.40
2012,06,09,08,26,11.50
2012,06,09,08,27,11.60
2012,06,09,08,28,11.70
2012,06,09,08,29,11.70
2012,06,09,08,30,11.80
2012,06,09,08,31,11.90
2012,06,09,08,32,11.90
2012,06,09,08,33,12.00
2012,06,09,08,34,12.10
2012,06,09,08,35,12.10
2012,06,09,08,36,12.20
2012,06,09,08,37,12.20
2012,06,09,08,38,12.20
2012,06,09,08,39,12.20
2012,06,09,08,40,12.20
2012,06,09,08,41,12.20
2012,06,09,08,42,12.20
2012,06,09,08,43,12.20
2012,06,09,08,44,12.20
2012,06,09,08,45,12.20
2012,06,09,08,46,12.20
2012,06,09,08,47,12.20
2012,06,09,08,48,12.30
2012,06,09,08,49,12.30
2012,06,09,08,50,12.30
2012,06,09,08,51,12.30
2012,06,09,08,52,12.40
2012,06,09,08,53,12.40
2012,06,09,08,54,12.30
2012,06,09,08,55,12.30
2012,06,09,08,56,12.30
2012,06,09,08,57,12.30
2012,06,09,08,58,12.30
2012,06,09,08,59,12.30
2012,06,09,09,00,12.30
2012,06,09,09,01,12.30
2012,06,09,09,02,12.30
2012,06,09,09,03,12.30
2012,06,09,09,04,12.30
2012,06,09,09,05,12.40
2012,06,09,09,06,12.40
2012,06,09,09,07,12.50
2012,06,09,09,08,12.50
2012,06,09,09,09,12.60
2012,06,09,09,10,12.70
2012,06,09,09,11,12.70
2012,06,09,09,12,12.70
2012,06,09,09,13,12.80
2012,06,09,09,14,12.80
2012,06,09,09,15,12.80
2012,06,09,09,16,12.80
2012,06,09,09,17,12.80
2012,06,09,09,18,12.80
2012,06,09,09,19,12.70
2012,06,09,09,20,12.70
2012,06,09,09,21,12.60
2012,06,09,09,22,12.60
2012,06,09,09,23,12.60
2012,06,09,09,24,12.60
2012,06,09,09,25,12.50
2012,06,09,09,26,12.40
2012,06,09,09,27,12.30
2012,06,09,09,28,12.30
2012,06,09,09,29,12.30
2012,06,09,09,30,12.30
2012,06,09,09,31,12.30
2012,06,09,09,32,12.30
2012,06,09,09,33,12.10
2012,06,09,09,34,12.10
2012,06,09,09,35,12.20
2012,06,09,09,36,12.20
2012,06,09,09,37,12.30
2012,06,09,09,38,12.30
2012,06,09,09,39,12.40
2012,06,09,09,40,12.50
2012,06,09,09,41,12.60
2012,06,09,09,42,12.70
2012,06,09,09,43,12.80
2012,06,09,09,44,12.90
2012,06,09,09,45,13.00
2012,06,09,09,46,13.10
2012,06,09,09,47,13.10
2012,06,09,09,48,13.10
2012,06,09,09,49,13.00
2012,06,09,09,50,13.00
2012,06,09,09,51,13.00
2012,06,09,09,52,13.00
2012,06,09,09,53,13.00
2012,06,09,09,54,13.00
2012,06,09,09,55,13.10
2012,06,09,09,56,13.10
2012,06,09,09,57,13.20
2012,06,09,09,58,13.30
2012,06,09,09,59,13.30
2012,06,09,10,00,13.30
2012,06,09,10,01,13.30
2012,06,09,10,02,13.30
2012,06,09,10,03,13.30
2012,06,09,10,04,13.20
2012,06,09,10,05,13.20
2012,06,09,10,06,13.20
2012,06,09,10,07,13.20
2012,06,09,10,08,13.10
2012,06,09,10,09,13.20
2012,06,09,10,10,13.20
2012,06,09,10,11,13.30
2012,06,09,10,12,13.40
2012,06,09,10,13,13.50
2012,06,09,10,14,13.60
2012,06,09,10,15,13.70
2012,06,09,10,16,13.70
2012,06,09,10,17,13.60
2012,06,09,10,18,13.50
2012,06,09,10,19,13.50
2012,06,09,10,20,13.40
2012,06,09,10,21,13.30
2012,06,09,10,22,13.20
2012,06,09,10,23,13.20
2012,06,09,10,24,13.20
2012,06,09,10,25,13.20
2012,06,09,10,26,13.30
2012,06,09,10,27,13.40
2012,06,09,10,28,13.60
2012,06,09,10,29,13.70
2012,06,09,10,30,13.90
2012,06,09,10,31,14.10
2012,06,09,10,32,14.20
2012,06,09,10,33,14.40
2012,06,09,10,34,14.40
2012,06,09,10,35,14.50
2012,06,09,10,36,14.60
2012,06,09,10,37,14.70
2012,06,09,10,38,14.60
2012,06,09,10,39,14.50
2012,06,09,10,40,14.50
2012,06,09,10,41,14.50
2012,06,09,10,42,14.40
2012,06,09,10,43,14.50
2012,06,09,10,44,14.40
2012,06,09,10,45,14.40
2012,06,09,10,46,14.40
2012,06,09,10,47,14.40
2012,06,09,10,48,14.30
2012,06,09,10,49,14.20
2012,06,09,10,50,14.10
2012,06,09,10,51,14.10
2012,06,09,10,52,14.00
2012,06,09,10,53,14.00
2012,06,09,10,54,13.90
2012,06,09,10,55,13.80
2012,06,09,10,56,13.80
2012,06,09,10,57,13.90
2012,06,09,10,58,13.90
2012,06,09,10,59,14.00
2012,06,09,11,00,13.90
2012,06,09,11,01,14.00
2012,06,09,11,02,13.90
2012,06,09,11,03,13.90
2012,06,09,11,04,13.90
2012,06,09,11,05,13.80
2012,06,09,11,06,13.80
2012,06,09,11,07,13.70
2012,06,09,11,08,13.70
2012,06,09,11,09,13.70
2012,06,09,11,10,13.60
2012,06,09,11,11,13.60
2012,06,09,11,12,13.60
2012,06,09,11,13,13.60
2012,06,09,11,14,13.60
2012,06,09,11,15,13.70
2012,06,09,11,16,13.80
2012,06,09,11,17,13.80
2012,06,09,11,18,13.90
2012,06,09,11,19,14.00
2012,06,09,11,20,14.10
2012,06,09,11,21,14.20
2012,06,09,11,22,14.30
2012,06,09,11,23,14.30
2012,06,09,11,24,14.30
2012,06,09,11,25,14.30
2012,06,09,11,26,14.20
2012,06,09,11,27,14.20
2012,06,09,11,28,14.20
2012,06,09,11,29,14.20
2012,06,09,11,30,14.20
2012,06,09,11,31,14.20
2012,06,09,11,32,14.20
2012,06,09,11,33,14.20
2012,06,09,11,34,14.20
2012,06,09,11,35,14.20
2012,06,09,11,36,14.20
2012,06,09,11,37,14.30
2012,06,09,11,38,14.40
2012,06,09,11,39,14.40
2012,06,09,11,40,14.40
2012,06,09,11,41,14.30
2012,06,09,11,42,14.30
2012,06,09,11,43,14.20
2012,06,09,11,44,14.30
2012,06,09,11,45,14.40
2012,06,09,11,46,14.50
2012,06,09,11,47,14.60
2012,06,09,11,48,14.70
2012,06,09,11,49,14.80
2012,06,09,11,50,14.90
2012,06,09,11,51,14.90
2012,06,09,11,52,14.80
2012,06,09,11,53,14.80
2012,06,09,11,54,14.80
2012,06,09,11,55,14.80
2012,06,09,11,56,14.80
2012,06,09,11,57,14.90
2012,06,09,11,58,15.00
2012,06,09,11,59,15.00
2012,06,09,12,00,15.00
2012,06,09,12,01,15.00
2012,06,09,12,02,15.00
2012,06,09,12,03,15.00
2012,06,09,12,04,15.00
2012,06,09,12,05,15.00
2012,06,09,12,06,14.90
2012,06,09,12,07,14.70
2012,06,09,12,08,14.60
2012,06,09,12,09,14.60
2012,06,09,12,10,14.60
2012,06,09,12,11,14.70
2012,06,09,12,12,14.70
2012,06,09,12,13,14.70
2012,06,09,12,14,14.70
2012,06,09,12,15,14.80
2012,06,09,12,16,14.90
2012,06,09,12,17,15.00
2012,06,09,12,18,15.00
2012,06,09,12,19,15.00
2012,06,09,12,20,15.00
2012,06,09,12,21,15.00
2012,06,09,12,22,15.00
2012,06,09,12,23,15.00
2012,06,09,12,24,15.00
2012,06,09,12,25,15.00
2012,06,09,12,26,15.00
2012,06,09,12,27,14.90
2012,06,09,12,28,14.70
2012,06,09,12,29,14.60
2012,06,09,12,30,14.60
2012,06,09,12,31,14.50
2012,06,09,12,32,14.50
2012,06,09,12,33,14.60
2012,06,09,12,34,14.60
2012,06,09,12,35,14.70
2012,06,09,12,36,14.80
2012,06,09,12,37,14.80
2012,06,09,12,38,14.80
2012,06,09,12,39,15.00
2012,06,09,12,40,15.00
2012,06,09,12,41,15.00
2012,06,09,12,42,15.20
2012,06,09,12,43,15.30
2012,06,09,12,44,15.40
2012,06,09,12,45,15.50
2012,06,09,12,46,15.60
2012,06,09,12,47,15.60
2012,06,09,12,48,15.60
2012,06,09,12,49,15.60
2012,06,09,12,50,15.50
2012,06,09,12,51,15.50
2012,06,09,12,52,15.50
2012,06,09,12,53,15.50
2012,06,09,12,54,15.50
2012,06,09,12,55,15.40
2012,06,09,12,56,15.30
2012,06,09,12,57,15.10
2012,06,09,12,58,15.00
2012,06,09,12,59,15.00
2012,06,09,13,00,14.90
2012,06,09,13,01,14.80
2012,06,09,13,02,14.60
2012,06,09,13,03,14.40
2012,06,09,13,04,14.30
2012,06,09,13,05,14.20
2012,06,09,13,06,14.20
2012,06,09,13,07,14.20
2012,06,09,13,08,14.20
2012,06,09,13,09,14.40
2012,06,09,13,10,14.50
2012,06,09,13,11,14.60
2012,06,09,13,12,14.60
2012,06,09,13,13,14.70
2012,06,09,13,14,14.70
2012,06,09,13,15,14.80
2012,06,09,13,16,14.80
2012,06,09,13,17,14.70
2012,06,09,13,18,14.70
2012,06,09,13,19,14.70
2012,06,09,13,20,14.60
2012,06,09,13,21,14.60
2012,06,09,13,22,14.60
2012,06,09,13,23,14.60
2012,06,09,13,24,14.50
2012,06,09,13,25,14.60
2012,06,09,13,26,14.60
2012,06,09,13,27,14.60
2012,06,09,13,28,14.70
2012,06,09,13,29,14.80
2012,06,09,13,30,14.80
2012,06,09,13,31,14.90
2012,06,09,13,32,14.90
2012,06,09,13,33,15.00
2012,06,09,13,34,15.00
2012,06,09,13,35,15.00
2012,06,09,13,36,15.10
2012,06,09,13,37,15.20
2012,06,09,13,38,15.30
2012,06,09,13,39,15.40
2012,06,09,13,40,15.50
2012,06,09,13,41,15.60
2012,06,09,13,42,15.70
2012,06,09,13,43,15.80
2012,06,09,13,44,15.80
2012,06,09,13,45,15.80
2012,06,09,13,46,15.80
2012,06,09,13,47,15.70
2012,06,09,13,48,15.50
2012,06,09,13,49,15.50
2012,06,09,13,50,15.40
2012,06,09,13,51,15.50
2012,06,09,13,52,15.60
2012,06,09,13,53,15.60
2012,06,09,13,54,15.60
2012,06,09,13,55,15.70
2012,06,09,13,56,15.70
2012,06,09,13,57,15.70
2012,06,09,13,58,15.80
2012,06,09,13,59,15.80
2012,06,09,14,00,15.70
2012,06,09,14,01,15.70
2012,06,09,14,02,15.70
2012,06,09,14,03,15.50
2012,06,09,14,04,15.40
2012,06,09,14,05,15.30
2012,06,09,14,06,15.30
2012,06,09,14,07,15.30
2012,06,09,14,08,15.30
2012,06,09,14,09,15.30
2012,06,09,14,10,15.30
2012,06,09,14,11,15.40
2012,06,09,14,12,15.40
2012,06,09,14,13,15.40
2012,06,09,14,14,15.40
2012,06,09,14,15,15.40
2012,06,09,14,16,15.50
2012,06,09,14,17,15.50
2012,06,09,14,18,15.60
2012,06,09,14,19,15.60
2012,06,09,14,20,15.50
2012,06,09,14,21,15.60
2012,06,09,14,22,15.60
2012,06,09,14,23,15.70
2012,06,09,14,24,15.80
2012,06,09,14,25,15.80
2012,06,09,14,26,15.80
2012,06,09,14,27,15.70
2012,06,09,14,28,15.60
2012,06,09,14,29,15.60
2012,06,09,14,30,15.50
2012,06,09,14,31,15.50
2012,06,09,14,32,15.60
2012,06,09,14,33,15.60
2012,06,09,14,34,15.70
2012,06,09,14,35,15.70
2012,06,09,14,36,15.80
2012,06,09,14,37,15.70
2012,06,09,14,38,15.70
2012,06,09,14,39,15.70
2012,06,09,14,40,15.70
2012,06,09,14,41,15.80
2012,06,09,14,42,15.90
2012,06,09,14,43,16.00
2012,06,09,14,44,16.10
2012,06,09,14,45,16.10
2012,06,09,14,46,16.10
2012,06,09,14,47,16.20
2012,06,09,14,48,16.20
2012,06,09,14,49,16.20
2012,06,09,14,50,16.10
2012,06,09,14,51,15.90
2012,06,09,14,52,15.80
2012,06,09,14,53,15.80
2012,06,09,14,54,15.70
2012,06,09,14,55,15.60
2012,06,09,14,56,15.50
2012,06,09,14,57,15.50
2012,06,09,14,58,15.40
2012,06,09,14,59,15.30
2012,06,09,15,00,15.30
2012,06,09,15,01,15.40
2012,06,09,15,02,15.40
2012,06,09,15,03,15.50
2012,06,09,15,04,15.40
2012,06,09,15,05,15.40
2012,06,09,15,06,15.40
2012,06,09,15,07,15.40
2012,06,09,15,08,15.50
2012,06,09,15,09,15.50
2012,06,09,15,10,15.40
2012,06,09,15,11,15.40
2012,06,09,15,12,15.30
2012,06,09,15,13,15.30
2012,06,09,15,14,15.10
2012,06,09,15,15,15.00
2012,06,09,15,16,15.00
2012,06,09,15,17,15.00
2012,06,09,15,18,15.00
2012,06,09,15,19,15.00
2012,06,09,15,20,15.00
2012,06,09,15,21,15.00
2012,06,09,15,22,15.00
2012,06,09,15,23,15.00
2012,06,09,15,24,15.00
2012,06,09,15,25,15.00
2012,06,09,15,26,15.00
2012,06,09,15,27,15.10
2012,06,09,15,28,15.20
2012,06,09,15,29,15.10
2012,06,09,15,30,15.10
2012,06,09,15,31,15.00
2012,06,09,15,32,15.00
2012,06,09,15,33,15.00
2012,06,09,15,34,15.00
2012,06,09,15,35,14.80
2012,06,09,15,36,14.70
2012,06,09,15,37,14.70
2012,06,09,15,38,14.60
2012,06,09,15,39,14.60
2012,06,09,15,40,14.40
2012,06,09,15,41,14.30
2012,06,09,15,42,14.30
2012,06,09,15,43,14.30
2012,06,09,15,44,14.40
2012,06,09,15,45,14.50
2012,06,09,15,46,14.60
2012,06,09,15,47,14.60
2012,06,09,15,48,14.60
2012,06,09,15,49,14.50
2012,06,09,15,50,14.40
2012,06,09,15,51,14.40
2012,06,09,15,52,14.50
2012,06,09,15,53,14.60
2012,06,09,15,54,14.60
2012,06,09,15,55,14.60
2012,06,09,15,56,14.50
2012,06,09,15,57,14.50
2012,06,09,15,58,14.50
2012,06,09,15,59,14.40
2012,06,09,16,00,14.30
2012,06,09,16,01,14.20
2012,06,09,16,02,14.20
2012,06,09,16,03,14.10
2012,06,09,16,04,14.00
2012,06,09,16,05,14.00
2012,06,09,16,06,13.90
2012,06,09,16,07,13.90
2012,06,09,16,08,13.80
2012,06,09,16,09,13.80
2012,06,09,16,10,13.80
2012,06,09,16,11,13.70
2012,06,09,16,12,13.60
2012,06,09,16,13,13.60
2012,06,09,16,14,13.60
2012,06,09,16,15,13.60
2012,06,09,16,16,13.60
2012,06,09,16,17,13.70
2012,06,09,16,18,13.70
2012,06,09,16,19,13.70
2012,06,09,16,20,13.70
2012,06,09,16,21,13.70
2012,06,09,16,22,13.70
2012,06,09,16,23,13.70
2012,06,09,16,24,13.70
2012,06,09,16,25,13.70
2012,06,09,16,26,13.70
2012,06,09,16,27,13.70
